Location: Krakow
(50.0830°N, 19.9170°E)
Time: 07:39:00
(UTC+02:00)

A-11 Canister half - Pass Details

Date: 23 March 2026
Orbit: 1523 x 1684 km, 47.3° (Epoch: 18 April)

Event Time Altitude Azimuth Distance (km) Brightness Sun altitude
Rises 06:06:30 0° 206° (SSW) 4,919 11.4 3.9°
Reaches altitude 10° 06:10:06 10° 197° (SSW) 3,923 11.0 4.5°
Maximum altitude 06:18:37 33° 138° (SE) 2,519 10.9 5.9°
Drops below altitude 10° 06:26:57 10° 80° (E) 3,844 12.9 7.2°
Sets 06:30:24 0° 71° (ENE) 4,808 12.9 7.7°
